EW8589 Weather Reports


time (UTC)temp
F
wind
direction
speed
knots
gust
knots
rain 1hr
in
rain 24hr
in
rain mn
in
humidity
%
barometer
mb
20260507015506 53 319 1.7 6.1 0.01 0.21 0.21 90 1007.7
20260507015008 53 252 1.7 9.6 0.02 0.21 0.21 91 1007.5
20260507014515 53 275 4.3 13.9 0.02 0.21 0.21 91 1007.5
20260507014006 53 267 5.2 13.9 0.02 0.21 0.21 92 1007.3
20260507013508 53 328 0.9 5.2 0.01 0.20 0.20 92 1007.3
20260507013019 54 301 0.9 7.8 0.01 0.20 0.20 93 1007.5
20260507012511 54 268 1.7 7.8 0.01 0.20 0.20 93 1007.4
20260507012008 54 282 1.7 7.0 0.01 0.20 0.20 93 1007.6
20260507011521 54 269 1.7 7.0 0.01 0.20 0.20 94 1007.2
20260507011012 55 11 1.7 8.7 0.01 0.20 0.20 95 1007.0
20260507010509 55 301 3.5 10.4 0.01 0.20 0.20 95 1007.0
20260507010029 56 284 5.2 10.4 0.02 0.20 0.20 95 1006.9
20260507005509 58 298 2.6 7.8 0.02 0.20 0.20 97 1006.8
20260507005006 58 302 2.6 3.5 0.01 0.19 0.19 97 1006.6
20260507004511 58 236 0.0 3.5 0.01 0.19 0.19 97 1006.3
20260507004005 58 65 0.9 2.6 0.01 0.19 0.19 96 1006.2
20260507003507 58 167 0.9 2.6 0.01 0.19 0.19 96 1006.2
20260507003025 58 157 0.9 2.6 0.01 0.19 0.19 96 1006.1
20260507002506 58 213 0.0 3.5 0.01 0.19 0.19 96 1006.1
20260507002011 58 159 0.9 3.5 0.01 0.19 0.19 96 1006.0
20260507001534 58 185 0.0 1.7 0.01 0.19 0.19 96 1006.0
20260507001007 58 190 0.0 1.7 0.01 0.19 0.19 96 1006.1
20260507000508 58 140 0.0 3.5 0.01 0.19 0.19 96 1006.2
20260507000022 58 133 0.9 3.5 0.00 0.18 0.18 96 1006.2
20260506235511 58 167 0.0 2.6 0.00 0.18 0.18 96 1006.1
20260506235009 58 95 0.9 1.7 0.00 0.18 0.18 96 1006.1
20260506234523 58 169 0.9 2.6 0.00 0.18 0.18 96 1006.0
20260506234008 58 170 0.9 2.6 0.00 0.18 0.18 96 1005.9
20260506233506 58 159 0.0 1.7 0.00 0.18 0.18 96 1005.9
20260506233014 58 46 0.0 1.7 0.00 0.18 0.18 96 1005.8
20260506232507 58 122 0.9 1.7 0.00 0.18 0.18 96 1005.9
20260506232008 58 148 0.9 1.7 0.00 0.18 0.18 96 1005.8
20260506231518 58 169 0.0 1.7 0.00 0.18 0.18 96 1005.8
20260506231007 58 139 0.0 1.7 0.00 0.18 0.18 96 1005.7
20260506230509 58 263 0.0 1.7 0.00 0.18 0.18 96 1005.7
20260506230023 58 297 0.0 6.1 0.00 0.18 0.18 96 1005.6
20260506225507 58 153 0.9 6.1 0.00 0.18 0.18 96 1005.6
20260506225007 58 146 0.9 5.2 0.00 0.18 0.18 96 1005.6
20260506224526 58 150 1.7 4.3 0.01 0.18 0.18 96 1005.5
20260506224009 58 124 0.9 2.6 0.01 0.18 0.18 96 1005.6
20260506223511 58 122 0.0 3.5 0.01 0.18 0.18 96 1005.6
20260506223027 58 107 0.9 5.2 0.02 0.18 0.18 96 1005.6
20260506222504 58 105 1.7 5.2 0.02 0.18 0.18 96 1005.5
20260506222008 58 141 1.7 4.3 0.02 0.18 0.18 96 1005.5
20260506221513 58 293 0.9 4.3 0.02 0.18 0.18 96 1005.5
20260506221010 58 173 0.9 6.1 0.02 0.18 0.18 96 1005.5
20260506220507 58 134 0.9 6.1 0.02 0.18 0.18 96 1005.6
20260506220020 58 116 0.9 3.5 0.02 0.18 0.18 95 1005.6
20260506215509 58 157 0.9 3.5 0.02 0.18 0.18 95 1005.6
20260506215009 58 46 0.0 3.5 0.02 0.18 0.18 96 1005.7
20260506214524 58 161 0.9 3.5 0.01 0.17 0.17 95 1005.7
20260506214015 58 30 0.0 2.6 0.01 0.17 0.17 95 1005.6
20260506213512 58 157 0.9 4.3 0.01 0.17 0.17 95 1005.6
20260506213024 58 148 0.9 5.2 0.00 0.16 0.16 95 1005.6
20260506212510 58 95 1.7 5.2 0.01 0.16 0.16 95 1005.7
20260506212013 58 63 0.0 3.5 0.01 0.16 0.16 95 1005.7
20260506211531 58 26 0.9 3.5 0.01 0.16 0.16 95 1005.6
20260506211006 58 62 0.0 3.5 0.01 0.16 0.16 95 1005.8
20260506210506 58 204 0.9 3.5 0.01 0.16 0.16 95 1005.7
20260506210021 58 67 0.0 3.5 0.02 0.16 0.16 95 1005.7
20260506205509 58 51 0.0 3.5 0.03 0.16 0.16 95 1005.7
20260506205014 58 150 0.9 3.5 0.04 0.16 0.16 95 1005.7
20260506204521 58 81 1.7 3.5 0.05 0.16 0.16 95 1005.9
20260506204008 58 78 0.9 4.3 0.05 0.16 0.16 95 1005.9
20260506203504 58 101 0.9 4.3 0.06 0.16 0.16 95 1005.8
20260506203006 58 97 0.9 4.3 0.06 0.16 0.16 95 1005.8
20260506202505 58 116 0.9 3.5 0.06 0.15 0.15 95 1005.8
20260506202009 59 148 0.0 3.5 0.07 0.15 0.15 95 1005.9
20260506201510 58 124 0.9 7.0 0.07 0.15 0.15 95 1005.9
20260506201005 58 197 0.9 7.0 0.07 0.15 0.15 95 1005.9
20260506200510 58 14 1.7 6.1 0.08 0.15 0.15 95 1005.9
20260506200013 58 87 1.7 4.3 0.07 0.14 0.14 95 1006.0
20260506195508 58 180 0.9 4.3 0.06 0.13 0.13 94 1006.1
20260506195007 58 157 0.9 4.3 0.05 0.12 0.12 94 1006.1
20260506194514 58 140 1.7 4.3 0.04 0.11 0.11 94 1006.2
20260506194005 58 127 0.9 5.2 0.04 0.11 0.11 94 1006.3
20260506193502 58 71 0.9 7.0 0.03 0.10 0.10 94 1006.3
20260506193007 58 157 1.7 7.0 0.03 0.10 0.10 94 1006.3
20260506192503 58 164 1.7 7.0 0.02 0.09 0.09 93 1006.4
20260506192006 58 163 1.7 7.0 0.01 0.08 0.08 93 1006.4
20260506191510 58 90 2.6 6.1 0.02 0.08 0.08 93 1006.6
20260506191006 58 70 0.9 6.1 0.02 0.08 0.08 93 1006.6
20260506190506 58 97 1.7 6.1 0.01 0.07 0.07 93 1006.6
20260506190014 58 145 0.9 7.0 0.01 0.07 0.07 93 1006.7
20260506185506 58 98 1.7 7.0 0.01 0.07 0.07 93 1006.8
20260506185005 58 169 2.6 5.2 0.01 0.07 0.07 93 1006.8
20260506184515 58 162 0.9 3.5 0.02 0.07 0.07 93 1006.8
20260506184007 58 105 0.9 3.5 0.02 0.07 0.07 93 1006.8
20260506183509 58 259 1.7 6.1 0.02 0.07 0.07 93 1007.1
20260506183018 58 150 0.9 6.1 0.03 0.07 0.07 93 1006.9
20260506182503 58 233 1.7 4.3 0.03 0.07 0.07 93 1006.9
20260506182003 58 70 1.7 5.2 0.04 0.07 0.07 93 1006.9
20260506181508 59 136 0.9 5.2 0.04 0.06 0.06 93 1006.9
20260506181008 59 162 1.7 4.3 0.05 0.06 0.06 92 1006.9
20260506180506 59 192 0.9 4.3 0.05 0.06 0.06 92 1007.0
20260506180015 59 189 1.7 5.2 0.05 0.06 0.06 92 1007.0
20260506175507 60 188 1.7 5.2 0.06 0.06 0.06 92 1006.7
20260506175006 60 86 0.9 6.1 0.06 0.06 0.06 92 1006.7
20260506174514 60 188 1.7 6.1 0.05 0.05 0.05 91 1007.1
20260506174005 60 155 1.7 6.1 0.05 0.05 0.05 91 1007.0
20260506173506 60 184 2.6 6.1 0.05 0.05 0.05 91 1007.1
20260506173020 60 183 0.9 4.3 0.04 0.04 0.04 91 1007.3
20260506172509 60 64 1.7 4.3 0.04 0.04 0.04 90 1007.3
20260506172009 61 68 0.9 4.3 0.03 0.03 0.03 89 1007.6
20260506171511 61 148 0.9 4.3 0.02 0.02 0.02 88 1007.7
20260506171003 62 138 1.7 3.5 0.01 0.01 0.01 87 1007.9
20260506170505 62 86 0.9 3.5 0.01 0.01 0.01 86 1008.2
20260506170011 63 81 0.9 3.5 0.01 0.01 0.01 85 1007.9
20260506165506 63 122 0.9 5.2 0.00 0.00 0.00 81 1008.0
20260506165006 64 277 1.7 5.2 0.00 0.00 0.00 81 1008.2
20260506164519 64 153 1.7 5.2 0.00 0.00 0.00 79 1008.1
20260506164009 64 315 0.0 5.2 0.00 0.00 0.00 79 1007.9
20260506163514 65 142 0.9 6.1 0.00 0.00 0.00 77 1007.8
20260506163018 65 271 1.7 6.1 0.00 0.00 0.00 74 1007.9
20260506162509 65 321 2.6 4.3 0.00 0.00 0.00 75 1007.8
20260506162014 66 67 0.9 6.1 0.00 0.00 0.00 73 1007.8
20260506161522 66 250 1.7 8.7 0.00 0.00 0.00 73 1007.8
20260506161010 67 265 1.7 8.7 0.00 0.00 0.00 71 1007.8
20260506160511 67 342 1.7 7.8 0.00 0.00 0.00 70 1007.8
20260506160007 67 119 2.6 9.6 0.00 0.00 0.00 70 1007.9
20260506155505 67 303 0.9 9.6 0.00 0.00 0.00 71 1008.2
20260506155007 67 67 2.6 9.6 0.00 0.00 0.00 71 1008.3
20260506154512 67 316 1.7 6.1 0.00 0.00 0.00 70 1008.5
20260506154006 67 351 1.7 6.1 0.00 0.00 0.00 72 1008.3
20260506153508 67 82 0.9 5.2 0.00 0.00 0.00 72 1008.4
20260506153015 67 155 1.7 5.2 0.00 0.00 0.00 73 1008.4
20260506152506 66 309 0.9 3.5 0.00 0.00 0.00 75 1008.4
20260506152010 66 280 1.7 3.5 0.00 0.00 0.00 75 1008.5
20260506151529 65 276 0.0 3.5 0.00 0.00 0.00 76 1008.6
20260506151014 65 229 0.9 3.5 0.00 0.00 0.00 76 1008.7
20260506150507 65 71 1.7 2.6 0.00 0.00 0.00 75 1008.7
20260506150022 65 92 0.9 2.6 0.00 0.00 0.00 76 1008.7
20260506145517 65 138 0.9 4.3 0.00 0.00 0.00 77 1008.7
20260506145004 64 126 1.7 4.3 0.00 0.00 0.00 77 1008.7
20260506144512 64 244 0.9 2.6 0.00 0.00 0.00 78 1008.7
20260506144008 63 271 0.9 6.1 0.00 0.00 0.00 80 1008.9
20260506143506 63 103 0.9 6.1 0.00 0.00 0.00 79 1008.9
20260506143018 63 236 1.7 5.2 0.00 0.00 0.00 79 1008.9
20260506142510 63 173 0.9 3.5 0.00 0.00 0.00 80 1008.9
20260506142009 63 295 0.9 4.3 0.00 0.00 0.00 81 1009.0
20260506141518 63 30 1.7 5.2 0.00 0.00 0.00 80 1008.9
20260506141008 62 185 2.6 5.2 0.00 0.00 0.00 80 1009.0
20260506140510 62 184 1.7 4.3 0.00 0.00 0.00 82 1008.8
20260506140027 62 132 2.6 4.3 0.00 0.00 0.00 81 1008.9
20260506135510 62 15 1.7 6.1 0.00 0.00 0.00 82 1009.0
20260506135006 61 169 1.7 6.1 0.00 0.00 0.00 81 1008.9
20260506134523 61 70 1.7 6.1 0.00 0.00 0.00 82 1008.8
20260506134012 61 121 1.7 5.2 0.00 0.00 0.00 82 1008.8
20260506133506 61 118 0.0 6.1 0.00 0.00 0.00 84 1008.8
20260506133013 60 229 0.9 6.1 0.00 0.00 0.00 83 1008.8
20260506132509 60 334 0.9 6.1 0.00 0.00 0.00 84 1008.8
20260506132007 60 140 1.7 4.3 0.00 0.00 0.00 84 1008.7
20260506131520 60 118 1.7 6.1 0.00 0.00 0.00 85 1008.9
20260506131007 59 56 0.9 6.1 0.00 0.00 0.00 85 1009.0
20260506130508 59 161 0.9 5.2 0.00 0.00 0.00 85 1009.1
20260506130020 59 131 1.7 3.5 0.00 0.00 0.00 85 1009.1
20260506125508 59 238 1.7 4.3 0.00 0.00 0.00 86 1009.1
20260506125009 59 188 0.9 4.3 0.00 0.00 0.00 85 1009.1
20260506124522 58 134 0.9 2.6 0.00 0.00 0.00 86 1009.0
20260506124011 58 63 0.9 2.6 0.00 0.00 0.00 86 1009.3
20260506123510 58 157 0.0 2.6 0.00 0.00 0.00 87 1009.4
20260506123023 58 269 1.7 2.6 0.00 0.00 0.00 86 1009.3
20260506122508 58 83 0.9 3.5 0.00 0.00 0.00 87 1009.3
20260506122006 58 144 0.9 4.3 0.00 0.00 0.00 87 1009.4
20260506121510 58 129 1.7 4.3 0.00 0.00 0.00 87 1009.4
20260506121007 57 49 0.9 4.3 0.00 0.00 0.00 88 1009.3
20260506120508 57 307 0.0 1.7 0.00 0.00 0.00 88 1009.3
20260506120033 57 25 0.0 2.6 0.00 0.00 0.00 89 1009.2
20260506115509 57 177 0.9 3.5 0.00 0.00 0.00 88 1009.3
20260506115012 57 251 0.9 6.1 0.00 0.00 0.00 88 1009.4
20260506114520 57 182 0.9 6.1 0.00 0.00 0.00 88 1009.2
20260506114009 57 176 1.7 5.2 0.00 0.00 0.00 89 1009.1
20260506113503 56 161 0.9 3.5 0.00 0.00 0.00 89 1009.3
20260506113010 56 213 0.9 4.3 0.00 0.00 0.00 89 1009.4
20260506112505 56 169 0.9 6.1 0.00 0.00 0.00 89 1009.4
20260506112005 56 202 1.7 6.1 0.00 0.00 0.00 89 1009.3
20260506111510 56 89 0.9 4.3 0.00 0.00 0.00 90 1009.3
20260506111007 56 166 0.9 3.5 0.00 0.00 0.00 91 1009.2
20260506110509 55 164 0.9 3.5 0.00 0.00 0.00 92 1009.2
20260506110014 55 80 0.9 3.5 0.00 0.00 0.00 92 1009.4
20260506105503 54 101 0.0 1.7 0.00 0.00 0.00 93 1009.6
20260506105003 53 286 0.0 1.7 0.00 0.00 0.00 93 1009.5
20260506104507 53 186 0.0 1.7 0.00 0.00 0.00 93 1009.4
20260506104003 53 186 0.0 1.7 0.00 0.00 0.00 92 1009.5
20260506103502 53 288 0.0 1.7 0.00 0.00 0.00 92 1009.5
20260506103005 53 289 0.0 1.7 0.00 0.00 0.00 92 1009.6
20260506102504 53 205 0.0 1.7 0.00 0.00 0.00 92 1009.5
20260506102004 53 221 0.0 2.6 0.00 0.00 0.00 92 1009.5
20260506101508 53 171 0.0 2.6 0.00 0.00 0.00 92 1009.3
20260506101007 53 101 0.0 2.6 0.00 0.00 0.00 92 1009.3
20260506100506 53 140 0.0 2.6 0.00 0.00 0.00 92 1009.2
20260506100026 53 184 0.9 2.6 0.00 0.00 0.00 92 1009.2
20260506094521 53 250 0.0 1.7 0.00 0.00 0.00 92 1009.2
20260506094004 53 245 0.0 1.7 0.00 0.00 0.00 91 1009.2
20260506093512 53 203 0.0 1.7 0.00 0.00 0.00 91 1009.2
20260506093005 53 221 0.9 1.7 0.00 0.00 0.00 92 1009.2
20260506092507 53 219 0.0 1.7 0.00 0.00 0.00 91 1009.2
20260506092006 53 90 0.0 1.7 0.00 0.00 0.00 91 1009.2
20260506091506 53 118 0.0 1.7 0.00 0.00 0.00 91 1009.2
20260506091004 53 118 0.0 1.7 0.00 0.00 0.00 91 1009.3
20260506090505 53 65 0.0 1.7 0.00 0.00 0.00 91 1009.2
20260506090010 54 66 0.0 1.7 0.00 0.00 0.00 90 1009.3
20260506085507 54 65 0.0 1.7 0.00 0.00 0.00 90 1009.2
20260506085007 54 150 0.0 1.7 0.00 0.00 0.00 90 1009.3
20260506084515 54 133 0.0 1.7 0.00 0.00 0.00 90 1009.3
20260506084008 54 119 0.0 0.9 0.00 0.00 0.00 89 1009.3
20260506083510 54 117 0.0 0.9 0.00 0.00 0.00 89 1009.3
20260506083018 54 70 0.0 1.7 0.00 0.00 0.00 88 1009.4
20260506082505 54 70 0.0 1.7 0.00 0.00 0.00 88 1009.4
20260506082004 55 211 0.0 1.7 0.00 0.00 0.00 87 1009.4
20260506081504 55 269 0.0 1.7 0.00 0.00 0.00 87 1009.3
20260506081006 55 275 0.0 1.7 0.00 0.00 0.00 87 1009.3
20260506080503 55 106 0.9 2.6 0.00 0.00 0.00 87 1009.2
20260506073509 55 161 0.0 1.7 0.00 0.00 0.00 85 1009.2
20260506073018 56 94 0.0 1.7 0.00 0.00 0.00 85 1009.2
20260506072512 55 112 0.0 1.7 0.00 0.00 0.00 85 1009.2
20260506072012 55 96 0.0 1.7 0.00 0.00 0.00 85 1009.3
20260506071506 56 61 0.0 1.7 0.00 0.00 0.00 85 1009.2
20260506071003 56 135 0.0 1.7 0.00 0.00 0.00 84 1009.3
20260506070504 56 135 0.0 1.7 0.00 0.00 0.00 83 1009.3
20260506062507 57 106 0.0 4.3 0.00 0.00 0.00 81 1009.1
20260506062011 57 147 0.9 4.3 0.00 0.00 0.00 81 1009.1
20260506061520 57 174 0.0 1.7 0.00 0.00 0.00 81 1009.1
20260506061011 57 156 0.0 1.7 0.00 0.00 0.00 80 1009.1
20260506060509 57 162 0.0 1.7 0.00 0.00 0.00 79 1009.1
20260506051009 59 58 0.0 3.5 0.00 0.00 0.00 76 1009.4
20260506050515 59 185 0.9 3.5 0.00 0.00 0.00 75 1009.4
20260506045010 59 76 0.0 2.6 0.00 0.00 0.00 75 1009.4
20260506044505 59 13 0.0 2.6 0.00 0.00 0.00 75 1009.4
20260506044005 59 194 0.0 4.3 0.00 0.00 0.00 75 1009.4
20260506043011 59 310 0.9 2.6 0.00 0.00 0.00 75 1009.4
20260506042507 59 130 0.9 2.6 0.00 0.00 0.00 75 1009.3
20260506042007 59 26 0.9 2.6 0.00 0.00 0.00 75 1009.3
20260506041516 59 161 0.9 2.6 0.00 0.00 0.00 74 1009.3
20260506041009 59 5 0.0 3.5 0.00 0.00 0.00 74 1009.3
20260506040508 59 159 0.9 3.5 0.00 0.00 0.00 74 1009.3
20260506035506 59 164 0.0 1.7 0.00 0.00 0.00 75 1009.4
20260506035008 59 352 0.0 1.7 0.00 0.00 0.00 74 1009.5
20260506034526 59 178 0.0 4.3 0.00 0.00 0.00 74 1009.5
20260506034007 60 177 0.0 4.3 0.00 0.00 0.00 73 1009.5
20260506033505 60 196 0.9 2.6 0.00 0.00 0.00 73 1009.5
20260506032506 60 285 0.0 2.6 0.00 0.00 0.00 73 1009.7
20260506032007 60 158 0.9 2.6 0.00 0.00 0.00 73 1009.7
20260506031510 60 189 0.0 1.7 0.00 0.00 0.00 72 1009.6
20260506031008 60 221 0.9 3.5 0.00 0.00 0.00 72 1009.6
20260506030510 60 157 0.0 6.1 0.00 0.00 0.00 71 1009.6
20260506030015 61 23 0.9 6.1 0.00 0.00 0.00 71 1009.6
20260506025506 61 195 0.9 2.6 0.00 0.00 0.00 71 1009.6
20260506025006 61 178 0.0 7.0 0.00 0.00 0.00 70 1009.4
20260506024525 61 146 1.7 7.0 0.00 0.00 0.00 70 1009.5
20260506024011 61 119 0.9 6.1 0.00 0.00 0.00 70 1009.5
20260506023508 61 65 1.7 5.2 0.00 0.00 0.00 70 1009.3
20260506023028 61 113 0.9 2.6 0.00 0.00 0.00 70 1009.3
20260506022510 61 5 0.9 5.2 0.00 0.00 0.00 71 1009.2
20260506022003 61 131 0.9 4.3 0.00 0.00 0.00 70 1009.3
20260506021008 62 194 0.0 2.6 0.00 0.00 0.00 69 1009.1
20260506020507 62 38 0.9 5.2 0.00 0.00 0.00 68 1009.2
20260506020016 62 138 0.9 5.2 0.00 0.00 0.00 69 1009.2